Houston, TX

9:39 PM CDT on September 19, 2017 (GMT -0500)
Hobby

Weather History for KHOU - July, 2013

Change the Weather History Date:

Sunday, July 21, 2013

  Actual Average Record
Temperature  
Mean Temperature 81 °F 85 °F  
Max Temperature 88 °F 94 °F 101 °F (2000)
Min Temperature 74 °F 75 °F 65 °F (1989)
Cooling Degree Days 16 20  
Month to date cooling degree days 383 402  
Year to date cooling degree days 1544 1574  
Since 1 June cooling degree days 974 922  
Growing Degree Days 31 (Base 50)    
Moisture  
Dew Point 73 °F    
Average Humidity 83    
Maximum Humidity 100    
Minimum Humidity 65    
Precipitation  
Precipitation T in 0.10 in 1.09 in (1919)
Month to date precipitation 3.84 2.79  
Year to date precipitation 17.62 27.11  
Sea Level Pressure  
Sea Level Pressure 29.98 in    
Wind  
Wind Speed 6 mph (South)    
Max Wind Speed 21 mph    
Max Gust Speed 28 mph    
Visibility 10 miles    
Events Rain    
T = Trace of Precipitation, MM = Missing Value Source: NWS Daily Summary

Daily Weather History Graph

Daily Weather History Graph

Search for Another Location

Airport or City:

Trip Planner

Search our weather history database for the weather conditions in past years. The results will help you decide how hot, cold, wet, or windy it might be!

Date:

Astronomy

Jul. 21, 2013 Rise Set
Actual Time 6:34 AM CDT 8:20 PM CDT
Civil Twilight 6:08 AM CDT 8:46 PM CDT
Nautical Twilight 5:36 AM CDT 9:18 PM CDT
Astronomical Twilight 5:02 AM CDT 9:51 PM CDT
Moon 7:22 PM CDT (7/21) 5:19 AM CDT (7/21)
Length of Visible Light 14h 38m
Length of Day
13h 45m
Waxing Gibbous, 98% of the Moon is Illuminated
Jul 21
Waxing Gibbous
Jul 22
Full
Jul 29
Last Quarter
Aug 6
New
Aug 14
First Quarter

Hourly Weather History & Observations

Time (CDT) Temp. Heat Index Dew Point Humidity Pressure Visibility Wind Dir Wind Speed Gust Speed Precip Events Conditions
12:53 AM 78.1 °F - 73.9 °F 87% 29.95 in 10.0 mi South 4.6 mph - N/A   Mostly Cloudy
1:53 AM 78.1 °F - 73.9 °F 87% 29.96 in 10.0 mi South 3.5 mph - N/A   Mostly Cloudy
2:53 AM 77.0 °F - 73.9 °F 90% 29.95 in 10.0 mi South 4.6 mph - N/A   Scattered Clouds
3:53 AM 77.0 °F - 73.0 °F 88% 29.94 in 10.0 mi Calm Calm - N/A   Scattered Clouds
4:53 AM 75.2 °F - 73.4 °F 94% 29.94 in 10.0 mi Calm Calm - N/A   Scattered Clouds
5:53 AM 75.2 °F - 71.6 °F 89% 29.95 in 10.0 mi SSE 3.5 mph - N/A   Scattered Clouds
6:53 AM 75.9 °F - 73.9 °F 94% 29.97 in 10.0 mi ESE 3.5 mph - N/A   Mostly Cloudy
7:25 AM 77.0 °F - 73.4 °F 89% 29.96 in 10.0 mi South 6.9 mph - 0.00 in   Mostly Cloudy
7:53 AM 75.9 °F - 73.9 °F 94% 29.98 in 10.0 mi South 8.1 mph - 0.03 in Rain Light Rain
8:53 AM 75.0 °F - 73.0 °F 94% 30.00 in 10.0 mi South 5.8 mph - 0.00 in   Mostly Cloudy
9:53 AM 80.1 °F 84.5 °F 73.9 °F 81% 30.00 in 10.0 mi South 5.8 mph - N/A   Mostly Cloudy
10:32 AM 82.4 °F 88.2 °F 73.4 °F 74% 29.99 in 10.0 mi South 12.7 mph 25.3 mph N/A   Mostly Cloudy
10:53 AM 78.1 °F - 72.0 °F 81% 30.02 in 10.0 mi SSW 15.0 mph 21.9 mph 0.00 in Rain Light Rain
11:04 AM 75.2 °F - 71.6 °F 89% 30.01 in 1.5 mi SSW 9.2 mph - 0.08 in Rain Heavy Rain
11:11 AM 75.2 °F - 71.6 °F 89% 30.01 in 3.0 mi South 5.8 mph - 0.14 in Rain Light Rain
11:53 AM 78.1 °F - 73.0 °F 84% 30.00 in 10.0 mi ESE 3.5 mph - 0.18 in   Mostly Cloudy
12:53 PM 81.0 °F 86.2 °F 73.9 °F 79% 30.02 in 10.0 mi SSE 8.1 mph - N/A   Mostly Cloudy
1:53 PM 82.9 °F 88.8 °F 73.0 °F 72% 30.02 in 10.0 mi SSE 19.6 mph 26.5 mph N/A   Overcast
2:03 PM 82.4 °F 88.2 °F 73.4 °F 74% 30.00 in 10.0 mi SSE 13.8 mph 20.7 mph N/A   Mostly Cloudy
2:53 PM 86.0 °F 93.8 °F 73.9 °F 67% 29.99 in 10.0 mi South 15.0 mph - N/A   Mostly Cloudy
3:53 PM 87.1 °F 94.5 °F 73.0 °F 63% 29.96 in 10.0 mi South 12.7 mph 19.6 mph N/A   Mostly Cloudy
4:53 PM 87.1 °F 93.6 °F 72.0 °F 61% 29.95 in 10.0 mi South 13.8 mph - N/A   Mostly Cloudy
5:53 PM 86.0 °F 92.2 °F 72.0 °F 63% 29.96 in 10.0 mi South 8.1 mph - N/A   Mostly Cloudy
6:53 PM 84.9 °F 91.4 °F 73.0 °F 67% 29.94 in 10.0 mi South 9.2 mph 17.3 mph N/A   Mostly Cloudy
7:53 PM 82.9 °F 89.4 °F 73.9 °F 74% 29.95 in 10.0 mi South 8.1 mph - N/A   Mostly Cloudy
8:53 PM 81.0 °F 86.7 °F 75.0 °F 82% 29.96 in 10.0 mi SSE 6.9 mph - N/A   Mostly Cloudy
9:53 PM 80.1 °F 85.1 °F 75.0 °F 85% 29.98 in 10.0 mi SSE 6.9 mph - N/A   Mostly Cloudy
10:53 PM 80.1 °F 85.1 °F 75.0 °F 85% 29.99 in 10.0 mi SSE 6.9 mph - N/A   Mostly Cloudy
11:53 PM 80.1 °F 85.4 °F 75.9 °F 87% 30.00 in 10.0 mi South 6.9 mph - N/A   Mostly Cloudy